Weather in Netanya

Israel     32°19′03″N   34°51′28″E
temp.,
°C
wind,
m/s
gust,
m/s
humid.,
%
clouds,
%
prec.,
mm/h
press.,
hPa
HPBL,
m
11 april, sun
sun1100:00+14wnw896490 0.6 10161160
03:00+14w8858100 1.1 10161303
06:00+15w77508 0.1 10171594
09:00+15wsw665095 0.1 10181522
12:00+16wsw875365 0.0 10191585
15:00+16wsw67485 0.1 10191549
18:00+16w77555 0.1 10191611
21:00+16w67572 0.1 10201254
12 april, mon
mon1200:00+15w66582 0.0 10201164
03:00+15w55586 0.0 10191123
06:00+14wsw345761 0.0 10191049
09:00+15wsw2256100 0.1 1020860
12:00+16w335850 0.0 1020919
15:00+16nw44560 0.0 1019901
18:00+16nnw55560 0.0 10191045
21:00+16nnw55590 0.0 1020913
13 april, tue
tue1300:00+15n44570 0.0 1020762
03:00+15ne34610 0.0 1019730
06:00+14e22640 0.0 1019366
09:00+15se11610 0.0 1021335
12:00+16nnw44560 0.0 1020567
15:00+17n66540 0.0 1020722
18:00+17n8858100 0.0 1019701
21:00+16nne6860100 0.0 1020580
14 april, wed
wed1400:00+16nne56610 0.0 1020577
03:00+15ne45656 0.0 1018435
06:00+15nne46670 0.0 1019383
09:00+16ne44580 0.0 1020281
12:00+18nnw44500 0.0 1018345
15:00+18n87645 0.0 1017316
18:00+18n810695 0.0 1017343
21:00+17nne79675 0.0 1017280
15 april, thu
thu1500:00+17nne57675 0.0 1017241
03:00+17nne566982 0.0 1016216
06:00+17nne5566100 0.0 1016209
09:00+18nne345797 0.0 1017197
12:00+20nnw4461100 0.0 1016219
15:00+19n79702 0.0 1015192
18:00+19n811720 0.0 1014209
21:00+18n710750 0.0 1015215